Regional Weather Roundup
Issued by NWS New Orleans/Baton Rouge, LA

Home | Current Version | Previous Version | Text Only | Print | Product List | Glossary On
Versions: 1 2 3 4 5 6 7 8 9 10 11 12 13 14 15 16 17 18 19 20 21 22 23 24 25 26 27 28 29 30 31 32 33 34 35 36 37 38 39 40 41 42 43 44 45 46 47 48 49 50
273
ASUS44 KLIX 250505
RWRLIX
NEW ORLEANS REGIONAL WEATHER ROUNDUP
NATIONAL WEATHER SERVICE NEW ORLEANS LA
1100 PM CST SAT JAN 24 2015

NOTE: "FAIR" INDICATES FEW OR NO CLOUDS BELOW 12,000 FEET WITH NO
      SIGNIFICANT WEATHER AND/OR OBSTRUCTIONS TO VISIBILITY.
      SKY/WX - SKY CONDITION AND SIGNIFICANT WEATHER.
      TMP - AIR TEMPERATURE.     DP    - DEWPOINT TEMPERATURE.
      RH  - RELATIVE HUMIDITY.   PRES  - PRESSURE.
      HI  - HEAT INDEX.          WCI   - WIND CHILL INDEX.

*  THESE STATIONS ARE NOT NWS OR FAA STATIONS AND ARE NOT UNDER
   NWS QUALITY CONTROL.

LAZ038-040-048-061>063-065>067-069-250600-
SOUTHEAST LOUISIANA

CITY           SKY/WX    TMP DP  RH WIND       PRES   REMARKS
N.O. AUDUBON   NOT AVBL
N.O. INTL ARPT PTCLDY    45  39  79 SW9       30.10S
N.O. LAKEFRONT CLEAR     50  40  68 W16       30.10S
N.O. DOWNTOWN*   N/A     46  37  71 SW6       30.11S
SLIDELL        CLEAR     46  39  76 SW6       30.08R
BATON ROUGE    CLEAR     45  37  73 SW10      30.08S
BOOTHVILLE     CLEAR     48  42  80 W7        30.12R
BELLE CHASSE   PTCLDY    47  39  74 SW5       30.10S
BOGALUSA*        N/A     36  33  89 CALM      30.08S
GALLIANO*      CLEAR     47  42  84 MISG      30.12S
NEW ROADS*       N/A     45  38  77 SW6       30.07S
GONZALES*        N/A     45  41  86 CALM      30.10R
HAMMOND*       CLEAR     45  36  70 SW3       30.10S
HOUMA*         CLEAR     44  41  89 W3        30.11S
PORT FOURCHON* CLEAR     52  45  76 W8        30.14F

$$

MSZ070-080>082-250600-
SOUTHERN MISSISSIPPI

CITY           SKY/WX    TMP DP  RH WIND       PRES   REMARKS
MCCOMB         CLEAR     38  33  82 SW3       30.05R
GULFPORT       CLEAR     40  36  86 SW3       30.08R
BILOXI         CLEAR     47  42  83 SW7       30.08R
PASCAGOULA     FOG       37  36  96 CALM      30.08R VSB 3/4

$$

COASTAL OBSERVATIONS
LAKE AND NEARSHORE STATIONS

STATION/POSITION TIME  TEMP    WIND        PRES    WAVE
                       AIR SEA DIR/SP/G            HT/PER
                 (UTC) (F)     (DEG/KT/KT) (MB)    (FT/S)
PASCAGOULA       0500   51     260/  6/ 10 1017.9
WAVELAND YACHT   0500   48     240/  7/  9 1017.7
GRAND ISLE       0500   52 54  280/ 12/ 15 1020.1
SOUTHWEST PASS   0500   54 45  300/ 11/ 18 1019.7
NEW CANAL        0500   48 52  240/  8/ 12 1019.5
SHELL BEACH      0500   47 53  240/  9/ 11 1019.1

OFFSHORE STATIONS

STATION/POSITION TIME  TEMP    WIND        PRES    WAVE
                       AIR SEA DIR/SP/G            HT/PER
                 (UTC) (F)     (DEG/KT/KT) (MB)    (FT/S)
64 S DAUPHIN ISL 0430   56 70  280/ 14/ 17 1018.8    4/ 7

$$




USA.gov is the U.S. government's official web portal to all federal, state and local government web resources and services.